Weather History for Howell, MI

Change the Weather History Date:

Saturday, April 5, 2014

  Actual Average Record
Temperature  
Mean Temperature 37 °F -  
Max Temperature 45 °F 52 °F 77 °F (2005)
Min Temperature 29 °F 33 °F 21 °F (2004)
Degree Days  
Heating Degree Days 28    
Moisture  
Dew Point 23 °F    
Average Humidity 62    
Maximum Humidity 92    
Minimum Humidity 33    
Precipitation  
Precipitation 0.00 in - - ()
Sea Level Pressure  
Sea Level Pressure 30.03 in    
Wind  
Wind Speed 14 mph (WNW)    
Max Wind Speed 24 mph    
Max Gust Speed 36 mph    
Visibility 10 miles    
Events Snow    
Averages and records for this station are not official NWS values.
T = Trace of Precipitation, MM = Missing Value Source: NWS Daily Summary

Daily Weather History Graph

Daily Weather History Graph

Search for Another Location

Airport:

Trip Planner

Search our weather history database for the weather conditions in past years. The results will help you decide how hot, cold, wet, or windy it might be!

Date:

Astronomy

Apr. 05, 2014 Rise Set
Actual Time 7:11 AM EDT 8:06 PM EDT
Civil Twilight 6:42 AM EDT 8:35 PM EDT
Nautical Twilight 6:08 AM EDT 9:09 PM EDT
Astronomical Twilight 5:33 AM EDT 9:45 PM EDT
Moon 11:13 AM EDT (4/5) 1:20 AM EDT (4/5)
Length of Visible Light 13h 52m
Length of Day
12h 55m
Waxing Crescent, 34% of the Moon is Illuminated
Apr 5
Waxing Crescent
Apr 7
First Quarter
Apr 15
Full
Apr 22
Last Quarter
Apr 29
New

Hourly Weather History & Observations

Time (EDT) Temp. Windchill Dew Point Humidity Pressure Visibility Wind Dir Wind Speed Gust Speed Precip Events Conditions
12:15 AM 33.1 °F 23.0 °F 30.6 °F 90% 29.73 in 3.0 mi West 15.0 mph 26.5 mph N/A Snow Light Snow
12:35 AM 32.9 °F 23.2 °F 30.9 °F 92% 29.73 in 10.0 mi West 13.8 mph 24.2 mph N/A   Overcast
12:54 AM 33.1 °F 23.0 °F 30.2 °F 89% 29.74 in 10.0 mi West 15.0 mph - N/A Snow Light Snow
1:15 AM 32.9 °F 20.7 °F 29.8 °F 88% 29.75 in 10.0 mi West 21.9 mph 28.8 mph N/A   Overcast
1:35 AM 32.7 °F 22.5 °F 29.1 °F 87% 29.77 in 10.0 mi West 15.0 mph 25.3 mph N/A Snow Light Snow
1:54 AM 32.4 °F 20.6 °F 28.0 °F 84% 29.78 in 10.0 mi WNW 19.6 mph 26.5 mph N/A   Overcast
2:15 AM 32.0 °F 19.5 °F 26.8 °F 81% 29.80 in 10.0 mi WNW 21.9 mph 28.8 mph N/A   Overcast
2:35 AM 31.6 °F 19.3 °F 25.3 °F 78% 29.81 in 10.0 mi West 20.7 mph 32.2 mph N/A   Overcast
2:55 AM 31.6 °F 20.7 °F 25.5 °F 78% 29.82 in 10.0 mi West 16.1 mph 23.0 mph N/A   Overcast
3:15 AM 31.5 °F 19.8 °F 25.0 °F 77% 29.83 in 10.0 mi West 18.4 mph 28.8 mph N/A   Overcast
3:35 AM 31.1 °F 18.3 °F 23.7 °F 74% 29.84 in 10.0 mi West 21.9 mph 29.9 mph N/A   Overcast
3:55 AM 30.9 °F 18.7 °F 23.9 °F 75% 29.85 in 10.0 mi West 19.6 mph 28.8 mph N/A   Overcast
4:15 AM 30.9 °F 19.1 °F 24.3 °F 76% 29.86 in 10.0 mi WNW 18.4 mph 26.5 mph N/A   Overcast
4:34 AM 30.7 °F 17.2 °F 24.6 °F 78% 29.88 in 10.0 mi West 24.2 mph 32.2 mph N/A   Overcast
4:55 AM 29.7 °F 16.7 °F 22.6 °F 75% 29.90 in 10.0 mi WNW 20.7 mph 35.7 mph N/A   Overcast
5:15 AM 29.7 °F 18.2 °F 22.3 °F 74% 29.90 in 10.0 mi WNW 16.1 mph 27.6 mph N/A   Overcast
5:34 AM 29.8 °F 17.7 °F 22.8 °F 75% 29.91 in 10.0 mi West 18.4 mph 27.6 mph N/A   Overcast
5:55 AM 29.8 °F 17.3 °F 23.2 °F 76% 29.93 in 10.0 mi WNW 19.6 mph 24.2 mph N/A   Overcast
6:15 AM 29.8 °F 18.4 °F 23.0 °F 76% 29.93 in 10.0 mi WNW 16.1 mph 27.6 mph N/A   Overcast
6:34 AM 29.8 °F 19.8 °F 23.0 °F 76% 29.95 in 10.0 mi WNW 12.7 mph 27.6 mph N/A   Overcast
6:55 AM 29.8 °F 18.9 °F 23.5 °F 77% 29.96 in 10.0 mi West 15.0 mph 20.7 mph N/A   Overcast
7:15 AM 30.0 °F 20.5 °F 23.4 °F 76% 29.98 in 10.0 mi WNW 11.5 mph 20.7 mph N/A   Overcast
7:34 AM 30.0 °F 18.3 °F 23.4 °F 76% 29.98 in 10.0 mi WNW 17.3 mph 23.0 mph N/A   Overcast
7:55 AM 30.2 °F 19.3 °F 23.4 °F 76% 30.00 in 10.0 mi WNW 15.0 mph 25.3 mph N/A   Overcast
8:34 AM 30.6 °F 21.2 °F 23.4 °F 75% 30.02 in 10.0 mi WNW 11.5 mph - N/A   Overcast
8:55 AM 31.1 °F 21.4 °F 23.7 °F 74% 30.03 in 10.0 mi WNW 12.7 mph 19.6 mph N/A   Overcast
9:15 AM 31.6 °F 21.6 °F 23.5 °F 72% 30.03 in 10.0 mi WNW 13.8 mph 21.9 mph N/A   Mostly Cloudy
9:34 AM 32.0 °F 20.8 °F 23.7 °F 71% 30.04 in 10.0 mi WNW 17.3 mph 24.2 mph N/A   Mostly Cloudy
9:55 AM 32.2 °F 21.1 °F 23.9 °F 72% 30.06 in 10.0 mi WNW 17.3 mph 23.0 mph N/A   Mostly Cloudy
10:15 AM 32.5 °F 21.2 °F 23.7 °F 70% 30.07 in 10.0 mi West 18.4 mph 24.2 mph N/A   Mostly Cloudy
10:34 AM 33.3 °F 23.7 °F 24.4 °F 70% 30.08 in 10.0 mi WNW 13.8 mph 24.2 mph N/A   Scattered Clouds
10:55 AM 35.6 °F 27.5 °F 25.9 °F 68% 30.08 in 10.0 mi WNW 11.5 mph 18.4 mph N/A   Scattered Clouds
11:15 AM 35.8 °F 26.5 °F 26.1 °F 68% 30.09 in 10.0 mi WNW 15.0 mph 19.6 mph N/A   Scattered Clouds
11:34 AM 36.7 °F 28.9 °F 25.9 °F 65% 30.10 in 10.0 mi West 11.5 mph 17.3 mph N/A   Scattered Clouds
11:55 AM 37.0 °F 28.5 °F 25.9 °F 64% 30.10 in 10.0 mi West 13.8 mph 18.4 mph N/A   Scattered Clouds
12:15 PM 37.9 °F 29.6 °F 26.6 °F 64% 30.10 in 10.0 mi NW 13.8 mph 19.6 mph N/A   Scattered Clouds
12:35 PM 37.9 °F 29.2 °F 26.2 °F 63% 30.10 in 10.0 mi West 15.0 mph 19.6 mph N/A   Clear
12:55 PM 39.0 °F 31.4 °F 25.2 °F 58% 30.10 in 10.0 mi West 12.7 mph 18.4 mph N/A   Clear
1:14 PM 40.1 °F 32.7 °F 26.6 °F 59% 30.10 in 10.0 mi WNW 12.7 mph 18.4 mph N/A   Clear
1:35 PM 41.2 °F 35.5 °F 26.1 °F 55% 30.11 in 10.0 mi WNW 9.2 mph 18.4 mph N/A   Scattered Clouds
1:55 PM 41.4 °F 34.3 °F 25.3 °F 53% 30.10 in 10.0 mi NW 12.7 mph - N/A   Clear
2:14 PM 42.1 °F 35.2 °F 25.5 °F 52% 30.11 in 10.0 mi NW 12.7 mph 19.6 mph N/A   Clear
2:35 PM 43.2 °F 37.0 °F 26.1 °F 51% 30.11 in 10.0 mi NW 11.5 mph 20.7 mph N/A   Scattered Clouds
2:55 PM 44.2 °F 38.4 °F 25.0 °F 47% 30.11 in 10.0 mi WNW 11.5 mph 19.6 mph N/A   Scattered Clouds
3:14 PM 44.8 °F 39.0 °F 23.7 °F 44% 30.11 in 10.0 mi NW 11.5 mph 25.3 mph N/A   Scattered Clouds
3:35 PM 44.4 °F 39.0 °F 20.3 °F 38% 30.11 in 10.0 mi WNW 10.4 mph 19.6 mph N/A   Clear
3:55 PM 45.0 °F 39.7 °F 22.3 °F 41% 30.11 in 10.0 mi NW 10.4 mph - N/A   Clear
4:14 PM 45.1 °F 39.5 °F 21.9 °F 40% 30.10 in 10.0 mi NNW 11.5 mph 18.4 mph N/A   Clear
4:35 PM 45.9 °F 40.4 °F 24.3 °F 43% 30.10 in 10.0 mi NW 11.5 mph 17.3 mph N/A   Clear
4:55 PM 45.3 °F 40.1 °F 20.8 °F 38% 30.11 in 10.0 mi NW 10.4 mph 19.6 mph N/A   Clear
5:14 PM 45.5 °F 40.3 °F 21.4 °F 38% 30.11 in 10.0 mi NW 10.4 mph 20.7 mph N/A   Clear
5:35 PM 45.5 °F 40.8 °F 22.3 °F 40% 30.12 in 10.0 mi NW 9.2 mph - N/A   Clear
5:54 PM 45.5 °F 39.9 °F 19.8 °F 36% 30.12 in 10.0 mi NW 11.5 mph 16.1 mph N/A   Clear
6:15 PM 45.1 °F 41.4 °F 20.8 °F 38% 30.13 in 10.0 mi NW 6.9 mph - N/A   Clear
6:35 PM 44.8 °F 39.4 °F 17.4 °F 33% 30.13 in 10.0 mi NW 10.4 mph - N/A   Clear
6:54 PM 44.6 °F 40.2 °F 18.9 °F 36% 30.13 in 10.0 mi NW 8.1 mph - N/A   Clear
7:15 PM 43.9 °F 40.5 °F 19.2 °F 37% 30.13 in 10.0 mi NW 5.8 mph - N/A   Clear
7:35 PM 42.6 °F 39.0 °F 19.2 °F 39% 30.14 in 10.0 mi NW 5.8 mph - N/A   Clear
7:54 PM 41.5 °F 38.6 °F 17.4 °F 38% 30.13 in 10.0 mi NW 4.6 mph - N/A   Clear
8:15 PM 40.3 °F 38.2 °F 16.7 °F 39% 30.13 in 10.0 mi NW 3.5 mph - N/A   Clear
8:35 PM 39.4 °F - 17.8 °F 42% 30.14 in 10.0 mi Calm Calm - N/A   Clear
8:54 PM 39.2 °F - 17.6 °F 42% 30.15 in 10.0 mi Calm Calm - N/A   Clear
9:15 PM 38.5 °F - 18.5 °F 45% 30.15 in 10.0 mi Calm Calm - N/A   Clear
9:34 PM 36.7 °F - 19.6 °F 50% 30.16 in 10.0 mi Calm Calm - N/A   Clear
9:55 PM 35.6 °F 31.7 °F 20.3 °F 54% 30.17 in 10.0 mi SW 4.6 mph - N/A   Clear
10:15 PM 36.5 °F - 19.8 °F 51% 30.17 in 10.0 mi Calm Calm - N/A   Clear
10:34 PM 35.2 °F - 20.3 °F 55% 30.17 in 10.0 mi Calm Calm - N/A   Clear
10:55 PM 34.3 °F 31.4 °F 21.0 °F 58% 30.17 in 10.0 mi WSW 3.5 mph - N/A   Clear
11:15 PM 33.8 °F 30.8 °F 21.2 °F 60% 30.17 in 10.0 mi WSW 3.5 mph - N/A   Clear
11:34 PM 32.5 °F 29.3 °F 21.7 °F 64% 30.17 in 10.0 mi WSW 3.5 mph - N/A   Clear
11:55 PM 33.1 °F - 21.2 °F 62% 30.16 in 10.0 mi Calm Calm - N/A   Clear